Radiation Dose at Monitoring Post of Fukushima Daini Nuclear Power Station
Date,Time,MP-1(microSv/h),MP-2(microSv/h),MP-3(microSv/h),MP-4(microSv/h),MP-5(microSv/h),MP-6(microSv/h),MP-7(microSv/h),Wind Direction,Wind Velocity(m/s),Rain
2017/03/18,00:00,0.384,0.233,0.393,0.364,0.331,0.192,0.162,south-southeast,0.6,No
2017/03/18,00:10,0.386,0.234,0.394,0.364,0.332,0.191,0.163,southwest,2.0,No
2017/03/18,00:20,0.385,0.233,0.395,0.363,0.332,0.193,0.163,west,1.2,No
2017/03/18,00:30,0.385,0.234,0.393,0.362,0.333,0.192,0.162,north-northwest,1.1,No
2017/03/18,00:40,0.384,0.235,0.393,0.364,0.332,0.192,0.163,west-northwest,2.2,No
2017/03/18,00:50,0.384,0.235,0.396,0.363,0.332,0.193,0.163,west-northwest,3.9,No
2017/03/18,01:00,0.385,0.234,0.395,0.363,0.332,0.192,0.162,north-northwest,2.6,No
2017/03/18,01:10,0.386,0.234,0.394,0.365,0.333,0.192,0.163,north-northeast,1.8,No
2017/03/18,01:20,0.385,0.234,0.394,0.363,0.331,0.192,0.163,north,2.6,No
2017/03/18,01:30,0.385,0.234,0.394,0.363,0.332,0.192,0.163,north-northwest,4.5,No
2017/03/18,01:40,0.385,0.233,0.394,0.361,0.332,0.192,0.162,north-northwest,4.7,No
2017/03/18,01:50,0.386,0.233,0.396,0.363,0.333,0.193,0.163,north-northwest,3.6,No
2017/03/18,02:00,0.385,0.233,0.393,0.363,0.331,0.192,0.161,northwest,2.9,No
2017/03/18,02:10,0.385,0.235,0.394,0.364,0.332,0.191,0.163,west-southwest,1.5,No
2017/03/18,02:20,0.386,0.234,0.393,0.363,0.330,0.192,0.164,west,0.8,No
2017/03/18,02:30,0.384,0.233,0.397,0.362,0.332,0.191,0.163,north,2.2,No
2017/03/18,02:40,0.386,0.233,0.395,0.363,0.332,0.192,0.163,northwest,2.0,No
2017/03/18,02:50,0.386,0.232,0.395,0.364,0.332,0.193,0.163,northwest,3.6,No
2017/03/18,03:00,0.383,0.234,0.394,0.365,0.332,0.192,0.163,west,2.9,No
2017/03/18,03:10,0.385,0.234,0.393,0.363,0.332,0.193,0.163,west-northwest,2.1,No
2017/03/18,03:20,0.384,0.233,0.396,0.363,0.333,0.193,0.162,northwest,1.6,No
2017/03/18,03:30,0.386,0.234,0.395,0.364,0.333,0.192,0.163,northwest,1.8,No
2017/03/18,03:40,0.383,0.234,0.393,0.364,0.331,0.193,0.163,west-northwest,1.3,No
2017/03/18,03:50,0.384,0.234,0.394,0.362,0.332,0.192,0.163,west-northwest,2.1,No
2017/03/18,04:00,0.384,0.233,0.395,0.364,0.331,0.192,0.163,west-northwest,2.8,No
2017/03/18,04:10,0.385,0.233,0.395,0.363,0.332,0.193,0.164,west-northwest,4.0,No
2017/03/18,04:20,0.387,0.233,0.395,0.364,0.332,0.192,0.163,west-northwest,4.7,No
2017/03/18,04:30,0.386,0.232,0.394,0.363,0.332,0.192,0.162,west-northwest,5.0,No
2017/03/18,04:40,0.386,0.232,0.395,0.364,0.332,0.192,0.163,west,5.1,No
2017/03/18,04:50,0.384,0.234,0.393,0.363,0.332,0.193,0.163,west,5.3,No
2017/03/18,05:00,0.383,0.234,0.395,0.363,0.333,0.193,0.164,west-northwest,4.6,No
2017/03/18,05:10,0.384,0.234,0.394,0.362,0.332,0.193,0.162,west,4.0,No
2017/03/18,05:20,0.386,0.234,0.393,0.363,0.331,0.192,0.163,west,2.9,No
2017/03/18,05:30,0.386,0.234,0.393,0.363,0.332,0.193,0.163,west-southwest,3.3,No
2017/03/18,05:40,0.385,0.233,0.393,0.365,0.332,0.191,0.162,west-southwest,3.4,No
2017/03/18,05:50,0.383,0.234,0.394,0.363,0.332,0.192,0.163,west-southwest,3.6,No
2017/03/18,06:00,0.385,0.234,0.394,0.363,0.331,0.193,0.162,west-southwest,3.5,No
2017/03/18,06:10,0.385,0.233,0.395,0.363,0.332,0.193,0.163,west-southwest,3.6,No
2017/03/18,06:20,0.384,0.234,0.393,0.363,0.332,0.192,0.163,west-southwest,3.8,No
2017/03/18,06:30,0.384,0.233,0.393,0.362,0.331,0.192,0.163,west-southwest,4.2,No
2017/03/18,06:40,0.386,0.234,0.396,0.363,0.331,0.192,0.162,west,4.1,No
2017/03/18,06:50,0.386,0.233,0.397,0.363,0.332,0.191,0.162,west-northwest,3.8,No
2017/03/18,07:00,0.385,0.234,0.393,0.362,0.331,0.193,0.163,west-northwest,2.7,No
2017/03/18,07:10,0.386,0.233,0.394,0.365,0.333,0.192,0.163,west-northwest,2.3,No
2017/03/18,07:20,0.385,0.232,0.394,0.362,0.331,0.192,0.162,west-northwest,2.1,No
2017/03/18,07:30,0.383,0.233,0.394,0.362,0.332,0.193,0.162,west-northwest,1.8,No
2017/03/18,07:40,0.384,0.232,0.394,0.364,0.332,0.191,0.163,northwest,1.0,No
2017/03/18,07:50,0.385,0.233,0.393,0.362,0.333,0.193,0.163,west-northwest,0.6,No
2017/03/18,08:00,0.383,0.233,0.394,0.362,0.332,0.192,0.163,north,0.8,No
2017/03/18,08:10,0.386,0.233,0.393,0.363,0.330,0.193,0.161,east-northeast,1.3,No
2017/03/18,08:20,0.384,0.232,0.395,0.361,0.334,0.193,0.163,-,CALM,No
2017/03/18,08:30,0.384,0.233,0.393,0.363,0.332,0.194,0.161,north,0.6,No
2017/03/18,08:40,0.383,0.233,0.395,0.362,0.330,0.192,0.162,west-northwest,0.7,No
2017/03/18,08:50,0.385,0.232,0.395,0.364,0.334,0.191,0.163,north-northwest,2.2,No
2017/03/18,09:00,0.384,0.232,0.393,0.361,0.332,0.191,0.162,north-northwest,3.8,No
2017/03/18,09:10,0.384,0.233,0.394,0.363,0.333,0.191,0.162,north-northwest,3.9,No
2017/03/18,09:20,0.387,0.234,0.395,0.360,0.333,0.192,0.163,north-northwest,3.7,No
2017/03/18,09:30,0.383,0.233,0.394,0.363,0.330,0.192,0.162,north,6.8,No
2017/03/18,09:40,0.385,0.232,0.393,0.359,0.331,0.191,0.162,northwest,4.4,No
2017/03/18,09:50,0.382,0.234,0.395,0.363,0.331,0.192,0.162,north-northwest,4.0,No
2017/03/18,10:00,0.384,0.233,0.395,0.361,0.333,0.191,0.163,northwest,3.0,No
2017/03/18,10:10,0.384,0.232,0.394,0.360,0.330,0.192,0.163,northwest,2.8,No
2017/03/18,10:20,0.383,0.233,0.393,0.364,0.333,0.192,0.163,north-northwest,2.7,No
2017/03/18,10:30,0.384,0.232,0.396,0.360,0.330,0.192,0.162,west-northwest,5.4,No
2017/03/18,10:40,0.383,0.233,0.394,0.364,0.334,0.192,0.164,northwest,3.1,No
2017/03/18,10:50,0.383,0.233,0.395,0.360,0.328,0.192,0.162,northwest,2.9,No
2017/03/18,11:00,0.384,0.231,0.393,0.364,0.332,0.192,0.163,south-southeast,2.0,No
2017/03/18,11:10,0.382,0.232,0.394,0.362,0.330,0.192,0.162,south-southeast,4.4,No
2017/03/18,11:20,0.385,0.233,0.393,0.364,0.333,0.192,0.163,east-southeast,3.9,No
2017/03/18,11:30,0.384,0.233,0.394,0.364,0.332,0.192,0.163,south-southeast,3.5,No
2017/03/18,11:40,0.385,0.234,0.393,0.365,0.335,0.192,0.163,south-southeast,4.8,No
2017/03/18,11:50,0.382,0.233,0.393,0.363,0.330,0.191,0.163,south-southeast,3.6,No
2017/03/18,12:00,0.385,0.234,0.393,0.365,0.333,0.193,0.164,south-southeast,1.7,No
2017/03/18,12:10,0.381,0.234,0.394,0.364,0.331,0.192,0.163,south,4.5,No
2017/03/18,12:20,0.384,0.234,0.390,0.365,0.334,0.193,0.164,south,4.9,No
2017/03/18,12:30,0.383,0.233,0.394,0.365,0.330,0.192,0.164,south,6.2,No
2017/03/18,12:40,0.384,0.234,0.391,0.365,0.334,0.193,0.163,south,4.9,No
2017/03/18,12:50,0.384,0.234,0.394,0.365,0.332,0.192,0.163,south-southeast,1.8,No
2017/03/18,13:00,0.387,0.234,0.394,0.366,0.334,0.191,0.164,south,0.7,No
2017/03/18,13:10,0.384,0.235,0.393,0.363,0.334,0.192,0.163,south,1.4,No
2017/03/18,13:20,0.389,0.235,0.395,0.367,0.334,0.192,0.164,south,4.5,No
2017/03/18,13:30,0.385,0.234,0.394,0.367,0.335,0.193,0.164,south,4.5,No
2017/03/18,13:40,0.388,0.235,0.395,0.364,0.332,0.193,0.165,south,4.2,No
2017/03/18,13:50,0.385,0.233,0.395,0.366,0.334,0.192,0.163,south,4.0,No
2017/03/18,14:00,0.385,0.234,0.394,0.365,0.332,0.192,0.164,south,4.2,No
2017/03/18,14:10,0.385,0.234,0.396,0.366,0.333,0.192,0.164,south,3.8,No
2017/03/18,14:20,0.385,0.234,0.393,0.367,0.333,0.193,0.162,south,3.7,No
2017/03/18,14:30,0.385,0.235,0.396,0.365,0.333,0.193,0.164,south-southeast,3.0,No
2017/03/18,14:40,0.385,0.234,0.396,0.367,0.334,0.193,0.164,south,4.3,No
2017/03/18,14:50,0.386,0.235,0.395,0.365,0.333,0.192,0.163,south,3.4,No
2017/03/18,15:00,0.384,0.233,0.396,0.365,0.333,0.192,0.164,south-southeast,1.7,No
2017/03/18,15:10,0.384,0.235,0.395,0.367,0.335,0.194,0.165,south,2.9,No
2017/03/18,15:20,0.385,0.234,0.394,0.365,0.332,0.193,0.163,southeast,1.9,No
2017/03/18,15:30,0.384,0.234,0.397,0.366,0.334,0.192,0.164,south,2.2,No
2017/03/18,15:40,0.387,0.235,0.393,0.365,0.332,0.191,0.164,south-southeast,0.5,No
2017/03/18,15:50,0.383,0.234,0.397,0.365,0.333,0.192,0.163,northwest,2.0,No
2017/03/18,16:00,0.385,0.235,0.395,0.366,0.332,0.193,0.164,west-northwest,5.1,No
2017/03/18,16:10,0.384,0.233,0.394,0.365,0.332,0.192,0.163,west-northwest,3.5,No
2017/03/18,16:20,0.384,0.234,0.397,0.366,0.333,0.192,0.163,northwest,3.4,No
2017/03/18,16:30,0.387,0.234,0.394,0.366,0.332,0.192,0.164,west-northwest,6.4,No
2017/03/18,16:40,0.385,0.233,0.394,0.365,0.333,0.193,0.164,west,5.3,No
2017/03/18,16:50,0.385,0.234,0.394,0.366,0.331,0.194,0.164,west,5.4,No
2017/03/18,17:00,0.386,0.234,0.395,0.365,0.333,0.193,0.164,west,5.3,No
2017/03/18,17:10,0.386,0.234,0.395,0.365,0.334,0.193,0.163,west-northwest,3.9,No
2017/03/18,17:20,0.387,0.236,0.395,0.367,0.331,0.192,0.164,northwest,1.9,No
2017/03/18,17:30,0.387,0.235,0.394,0.366,0.333,0.192,0.163,west,4.3,No
2017/03/18,17:40,0.385,0.235,0.397,0.365,0.332,0.194,0.164,west,5.4,No
2017/03/18,17:50,0.386,0.235,0.396,0.367,0.333,0.192,0.164,west,6.1,No
2017/03/18,18:00,0.386,0.235,0.394,0.366,0.333,0.193,0.165,west,5.7,No
2017/03/18,18:10,0.386,0.234,0.397,0.366,0.334,0.193,0.164,west-northwest,6.1,No
2017/03/18,18:20,0.387,0.235,0.395,0.365,0.334,0.193,0.163,west,6.9,No
2017/03/18,18:30,0.385,0.234,0.396,0.365,0.333,0.193,0.164,west-northwest,5.5,No
2017/03/18,18:40,0.385,0.235,0.396,0.365,0.334,0.193,0.164,west,6.0,No
2017/03/18,18:50,0.388,0.234,0.396,0.366,0.332,0.193,0.165,west,4.8,No
2017/03/18,19:00,0.385,0.234,0.395,0.366,0.334,0.193,0.165,west,6.7,No
2017/03/18,19:10,0.387,0.236,0.395,0.365,0.334,0.193,0.165,west-northwest,8.0,No
2017/03/18,19:20,0.387,0.234,0.397,0.366,0.332,0.193,0.165,west,7.5,No
2017/03/18,19:30,0.387,0.235,0.395,0.366,0.334,0.192,0.165,west,7.3,No
2017/03/18,19:40,0.385,0.234,0.396,0.366,0.334,0.193,0.164,west,7.5,No
2017/03/18,19:50,0.388,0.235,0.397,0.366,0.332,0.193,0.164,west,7.2,No
2017/03/18,20:00,0.385,0.234,0.396,0.367,0.333,0.193,0.163,west,7.3,No
2017/03/18,20:10,0.386,0.234,0.395,0.366,0.334,0.193,0.164,west,6.7,No
2017/03/18,20:20,0.385,0.235,0.396,0.367,0.333,0.193,0.163,west,7.3,No
2017/03/18,20:30,0.386,0.235,0.396,0.366,0.334,0.193,0.164,west,5.7,No
2017/03/18,20:40,0.385,0.234,0.395,0.365,0.332,0.193,0.164,west,6.4,No
2017/03/18,20:50,0.386,0.234,0.396,0.367,0.334,0.194,0.164,west,4.3,No
2017/03/18,21:00,0.388,0.235,0.396,0.368,0.333,0.193,0.164,west,3.6,No
2017/03/18,21:10,0.386,0.234,0.394,0.366,0.334,0.192,0.164,west-southwest,1.7,No
2017/03/18,21:20,0.385,0.234,0.395,0.366,0.333,0.192,0.164,west-southwest,2.1,No
2017/03/18,21:30,0.387,0.235,0.396,0.367,0.333,0.193,0.163,southwest,2.5,No
2017/03/18,21:40,0.386,0.234,0.395,0.366,0.336,0.193,0.164,west,2.8,No
2017/03/18,21:50,0.387,0.234,0.396,0.366,0.334,0.193,0.164,west-southwest,2.2,No
2017/03/18,22:00,0.388,0.234,0.398,0.365,0.333,0.193,0.163,west-southwest,4.5,No
2017/03/18,22:10,0.384,0.234,0.396,0.366,0.333,0.194,0.163,southwest,2.5,No
2017/03/18,22:20,0.385,0.235,0.396,0.365,0.334,0.193,0.164,south-southwest,2.5,No
2017/03/18,22:30,0.386,0.234,0.397,0.366,0.333,0.193,0.164,south-southwest,2.2,No
2017/03/18,22:40,0.386,0.234,0.394,0.365,0.335,0.193,0.164,southwest,1.5,No
2017/03/18,22:50,0.386,0.234,0.395,0.365,0.333,0.193,0.164,south-southwest,4.4,No
2017/03/18,23:00,0.386,0.234,0.396,0.366,0.333,0.193,0.165,south-southwest,3.2,No
2017/03/18,23:10,0.386,0.235,0.398,0.367,0.334,0.193,0.165,south-southwest,4.7,No
2017/03/18,23:20,0.386,0.235,0.395,0.366,0.334,0.194,0.164,south-southwest,4.0,No
2017/03/18,23:30,0.387,0.234,0.395,0.367,0.334,0.193,0.163,south-southwest,3.4,No
2017/03/18,23:40,0.386,0.234,0.396,0.366,0.333,0.194,0.164,south-southwest,4.7,No
2017/03/18,23:50,0.387,0.234,0.397,0.366,0.335,0.193,0.164,south-southwest,3.6,No
